Time,TemperatureF,DewpointF,PressureIn,WindDirection,WindDirectionDegrees,WindSpeedMPH,WindSpeedGustMPH,Humidity,HourlyPrecipIn,Conditions,Clouds,dailyrainin,SoftwareType,DateUTC
2013-09-04 00:00:00,76.5,65.5,29.93,NNW,348,0.0,1.0,69,0.00,,,0.00,meteohub,2013-09-04 07:00:00,
2013-09-04 00:05:00,76.3,65.8,29.93,NNW,348,0.0,1.0,70,0.00,,,0.00,meteohub,2013-09-04 07:05:00,
2013-09-04 00:10:00,76.1,66.0,29.93,NNW,348,0.0,0.0,71,0.00,,,0.00,meteohub,2013-09-04 07:10:00,
2013-09-04 00:15:00,75.7,65.7,29.93,NNW,348,0.0,0.0,71,0.00,,,0.00,meteohub,2013-09-04 07:15:00,
2013-09-04 00:20:00,75.6,65.5,29.93,NNW,348,0.0,0.0,71,0.00,,,0.00,meteohub,2013-09-04 07:20:00,
2013-09-04 00:25:00,75.6,65.8,29.93,NNW,348,0.0,0.0,72,0.00,,,0.00,meteohub,2013-09-04 07:25:00,
2013-09-04 00:30:00,75.2,65.5,29.93,NNW,348,0.0,0.0,72,0.00,,,0.00,meteohub,2013-09-04 07:30:00,
2013-09-04 00:36:00,74.8,65.7,29.93,NNW,348,0.0,0.0,73,0.00,,,0.00,meteohub,2013-09-04 07:36:00,
2013-09-04 00:41:00,74.7,65.8,29.93,NNW,348,0.0,0.0,74,0.00,,,0.00,meteohub,2013-09-04 07:41:00,
2013-09-04 00:46:00,74.5,65.7,29.93,NNW,348,0.0,1.0,74,0.00,,,0.00,meteohub,2013-09-04 07:46:00,
2013-09-04 00:51:00,74.3,65.8,29.92,NNW,348,0.0,1.0,75,0.00,,,0.00,meteohub,2013-09-04 07:51:00,
2013-09-04 00:56:00,74.3,65.8,29.93,NNW,348,0.0,0.0,75,0.00,,,0.00,meteohub,2013-09-04 07:56:00,
2013-09-04 01:01:00,74.1,65.7,29.92,NNW,348,0.0,0.0,75,0.00,,,0.00,meteohub,2013-09-04 08:01:00,
2013-09-04 01:06:00,74.1,66.0,29.92,NNW,348,0.0,0.0,76,0.00,,,0.00,meteohub,2013-09-04 08:06:00,
2013-09-04 01:11:00,73.9,65.8,29.92,NNW,348,0.0,0.0,76,0.00,,,0.00,meteohub,2013-09-04 08:11:00,
2013-09-04 01:16:00,73.9,65.8,29.92,NNW,348,0.0,0.0,76,0.00,,,0.00,meteohub,2013-09-04 08:16:00,
2013-09-04 01:21:00,73.8,66.0,29.93,NNW,348,0.0,0.0,77,0.00,,,0.00,meteohub,2013-09-04 08:21:00,
2013-09-04 01:26:00,73.8,66.0,29.92,NNW,348,0.0,0.0,77,0.00,,,0.00,meteohub,2013-09-04 08:26:00,
2013-09-04 01:31:00,73.8,66.0,29.93,NNW,348,0.0,0.0,77,0.00,,,0.00,meteohub,2013-09-04 08:31:00,
2013-09-04 01:36:00,73.6,65.8,29.92,NNW,348,0.0,0.0,77,0.00,,,0.00,meteohub,2013-09-04 08:36:00,
2013-09-04 01:41:00,73.4,65.7,29.92,NNW,348,0.0,0.0,77,0.00,,,0.00,meteohub,2013-09-04 08:41:00,
2013-09-04 01:46:00,73.2,65.7,29.92,NNW,348,0.0,0.0,77,0.00,,,0.00,meteohub,2013-09-04 08:46:00,
2013-09-04 01:51:00,73.2,66.0,29.92,NNW,348,0.0,0.0,78,0.00,,,0.00,meteohub,2013-09-04 08:51:00,
2013-09-04 01:56:00,73.0,65.8,29.92,NNW,348,0.0,0.0,78,0.00,,,0.00,meteohub,2013-09-04 08:56:00,
2013-09-04 02:01:00,73.0,65.8,29.92,NNW,348,0.0,0.0,78,0.00,,,0.00,meteohub,2013-09-04 09:01:00,
2013-09-04 02:06:00,72.9,65.7,29.92,NNW,348,0.0,0.0,78,0.00,,,0.00,meteohub,2013-09-04 09:06:00,
2013-09-04 02:11:00,72.9,66.0,29.92,NNW,348,0.0,0.0,79,0.00,,,0.00,meteohub,2013-09-04 09:11:00,
2013-09-04 02:16:00,72.7,65.8,29.92,NNW,348,0.0,0.0,79,0.00,,,0.00,meteohub,2013-09-04 09:16:00,
2013-09-04 02:21:00,72.7,65.8,29.92,NNW,348,0.0,0.0,79,0.00,,,0.00,meteohub,2013-09-04 09:21:00,
2013-09-04 02:26:00,72.7,66.2,29.92,NNW,348,0.0,0.0,80,0.00,,,0.00,meteohub,2013-09-04 09:26:00,
2013-09-04 02:31:00,72.5,66.0,29.92,NNW,348,0.0,0.0,80,0.00,,,0.00,meteohub,2013-09-04 09:31:00,
2013-09-04 02:36:00,72.3,65.8,29.92,NNW,348,0.0,0.0,80,0.00,,,0.00,meteohub,2013-09-04 09:36:00,
2013-09-04 02:41:00,72.3,65.8,29.92,NNW,348,0.0,0.0,80,0.00,,,0.00,meteohub,2013-09-04 09:41:00,
2013-09-04 02:46:00,72.3,66.2,29.91,NNW,348,0.0,0.0,81,0.00,,,0.00,meteohub,2013-09-04 09:46:00,
2013-09-04 02:51:00,72.3,66.2,29.91,NNW,348,0.0,0.0,81,0.00,,,0.00,meteohub,2013-09-04 09:51:00,
2013-09-04 02:56:00,72.3,66.2,29.91,NNW,348,0.0,0.0,81,0.00,,,0.00,meteohub,2013-09-04 09:56:00,
2013-09-04 03:01:00,72.1,66.0,29.91,NNW,348,0.0,0.0,81,0.00,,,0.00,meteohub,2013-09-04 10:01:00,
2013-09-04 03:06:00,72.1,66.0,29.91,NNW,348,0.0,0.0,81,0.00,,,0.00,meteohub,2013-09-04 10:06:00,
2013-09-04 03:11:00,72.1,66.0,29.91,NNW,348,0.0,0.0,81,0.00,,,0.00,meteohub,2013-09-04 10:11:00,
2013-09-04 03:16:00,72.0,65.8,29.91,NNW,348,0.0,0.0,81,0.00,,,0.00,meteohub,2013-09-04 10:16:00,
2013-09-04 03:21:00,72.0,65.8,29.92,NNW,348,0.0,0.0,81,0.00,,,0.00,meteohub,2013-09-04 10:21:00,
2013-09-04 03:26:00,72.0,65.8,29.92,NNW,348,0.0,0.0,81,0.00,,,0.00,meteohub,2013-09-04 10:26:00,
2013-09-04 03:31:00,71.8,65.7,29.92,NNW,348,0.0,0.0,81,0.00,,,0.00,meteohub,2013-09-04 10:31:00,
2013-09-04 03:36:00,71.4,65.7,29.91,NNW,348,0.0,0.0,82,0.00,,,0.00,meteohub,2013-09-04 10:36:00,
2013-09-04 03:41:00,71.4,65.7,29.91,NNW,348,0.0,0.0,82,0.00,,,0.00,meteohub,2013-09-04 10:41:00,
2013-09-04 03:47:00,71.4,65.7,29.91,NNW,348,0.0,0.0,82,0.00,,,0.00,meteohub,2013-09-04 10:47:00,
2013-09-04 03:52:00,71.4,66.0,29.91,NNW,348,0.0,0.0,83,0.00,,,0.00,meteohub,2013-09-04 10:52:00,
2013-09-04 03:57:00,71.2,65.8,29.91,NNW,348,0.0,0.0,83,0.00,,,0.00,meteohub,2013-09-04 10:57:00,
2013-09-04 04:02:00,71.2,65.8,29.91,NNW,348,0.0,0.0,83,0.00,,,0.00,meteohub,2013-09-04 11:02:00,
2013-09-04 04:07:00,71.2,65.5,29.91,NNW,348,0.0,0.0,82,0.00,,,0.00,meteohub,2013-09-04 11:07:00,
2013-09-04 04:12:00,71.2,65.5,29.91,NNW,348,0.0,0.0,82,0.00,,,0.00,meteohub,2013-09-04 11:12:00,
2013-09-04 04:17:00,71.2,65.5,29.91,NNW,348,0.0,0.0,82,0.00,,,0.00,meteohub,2013-09-04 11:17:00,
2013-09-04 04:22:00,71.2,65.5,29.92,NNW,348,0.0,0.0,82,0.00,,,0.00,meteohub,2013-09-04 11:22:00,
2013-09-04 04:27:00,71.2,65.5,29.91,NNW,348,0.0,0.0,82,0.00,,,0.00,meteohub,2013-09-04 11:27:00,
2013-09-04 04:32:00,71.2,65.8,29.91,NNW,348,0.0,0.0,83,0.00,,,0.00,meteohub,2013-09-04 11:32:00,
2013-09-04 04:37:00,71.2,65.8,29.92,NNW,348,0.0,0.0,83,0.00,,,0.00,meteohub,2013-09-04 11:37:00,
2013-09-04 04:42:00,71.2,65.8,29.92,NNW,348,0.0,0.0,83,0.00,,,0.00,meteohub,2013-09-04 11:42:00,
2013-09-04 04:47:00,71.2,65.8,29.92,NNW,348,0.0,0.0,83,0.00,,,0.00,meteohub,2013-09-04 11:47:00,
2013-09-04 04:52:00,71.2,65.8,29.92,NNW,348,0.0,0.0,83,0.00,,,0.00,meteohub,2013-09-04 11:52:00,
2013-09-04 04:57:00,71.1,66.0,29.92,NNW,348,0.0,0.0,84,0.00,,,0.00,meteohub,2013-09-04 11:57:00,
2013-09-04 05:02:00,71.1,65.7,29.92,NNW,348,0.0,0.0,83,0.00,,,0.00,meteohub,2013-09-04 12:02:00,
2013-09-04 05:07:00,71.1,65.7,29.92,NNW,348,0.0,0.0,83,0.00,,,0.00,meteohub,2013-09-04 12:07:00,
2013-09-04 05:12:00,71.1,65.7,29.92,NNW,348,0.0,0.0,83,0.00,,,0.00,meteohub,2013-09-04 12:12:00,
2013-09-04 05:17:00,70.9,65.5,29.92,NNW,348,0.0,0.0,83,0.00,,,0.00,meteohub,2013-09-04 12:17:00,
2013-09-04 05:22:00,70.9,65.5,29.92,NNW,348,0.0,0.0,83,0.00,,,0.00,meteohub,2013-09-04 12:22:00,
2013-09-04 05:27:00,70.7,65.3,29.92,NNW,348,0.0,0.0,83,0.00,,,0.00,meteohub,2013-09-04 12:27:00,
2013-09-04 05:33:00,70.5,65.1,29.92,NNW,348,0.0,0.0,83,0.00,,,0.00,meteohub,2013-09-04 12:33:00,
2013-09-04 05:38:00,70.3,64.9,29.92,NNW,348,0.0,0.0,83,0.00,,,0.00,meteohub,2013-09-04 12:38:00,
2013-09-04 05:43:00,70.3,65.3,29.92,NNW,348,0.0,0.0,84,0.00,,,0.00,meteohub,2013-09-04 12:43:00,
2013-09-04 05:48:00,70.3,65.7,29.92,NNW,348,0.0,0.0,85,0.00,,,0.00,meteohub,2013-09-04 12:48:00,
2013-09-04 05:53:00,70.3,65.3,29.92,NNW,348,0.0,0.0,84,0.00,,,0.00,meteohub,2013-09-04 12:53:00,
2013-09-04 05:58:00,70.2,65.1,29.91,NNW,348,0.0,0.0,84,0.00,,,0.00,meteohub,2013-09-04 12:58:00,
2013-09-04 06:03:00,70.2,65.5,29.92,NNW,348,0.0,0.0,85,0.00,,,0.00,meteohub,2013-09-04 13:03:00,
2013-09-04 06:08:00,70.2,65.5,29.92,NNW,348,0.0,0.0,85,0.00,,,0.00,meteohub,2013-09-04 13:08:00,
2013-09-04 06:13:00,70.0,65.3,29.92,NNW,348,0.0,0.0,85,0.00,,,0.00,meteohub,2013-09-04 13:13:00,
2013-09-04 06:18:00,70.0,65.3,29.92,NNW,348,0.0,0.0,85,0.00,,,0.00,meteohub,2013-09-04 13:18:00,
2013-09-04 06:23:00,70.0,65.3,29.92,NNW,348,0.0,0.0,85,0.00,,,0.00,meteohub,2013-09-04 13:23:00,
2013-09-04 06:28:00,70.2,65.8,29.93,NNW,348,0.0,0.0,86,0.00,,,0.00,meteohub,2013-09-04 13:28:00,
2013-09-04 06:33:00,70.2,65.8,29.93,NNW,348,0.0,0.0,86,0.00,,,0.00,meteohub,2013-09-04 13:33:00,
2013-09-04 06:38:00,70.3,66.0,29.93,NNW,348,0.0,0.0,86,0.00,,,0.00,meteohub,2013-09-04 13:38:00,
2013-09-04 06:43:00,70.2,65.5,29.93,NNW,348,0.0,0.0,85,0.00,,,0.00,meteohub,2013-09-04 13:43:00,
2013-09-04 06:48:00,70.2,65.8,29.93,NNW,348,0.0,0.0,86,0.00,,,0.00,meteohub,2013-09-04 13:48:00,
2013-09-04 06:53:00,70.3,66.2,29.94,NNW,348,0.0,0.0,87,0.00,,,0.00,meteohub,2013-09-04 13:53:00,
2013-09-04 06:58:00,70.3,66.2,29.94,NNW,348,0.0,0.0,87,0.00,,,0.00,meteohub,2013-09-04 13:58:00,
2013-09-04 07:03:00,70.3,66.0,29.94,NNW,348,0.0,0.0,86,0.00,,,0.00,meteohub,2013-09-04 14:03:00,
2013-09-04 07:08:00,70.2,65.8,29.94,NNW,348,0.0,0.0,86,0.00,,,0.00,meteohub,2013-09-04 14:08:00,
2013-09-04 07:13:00,70.2,65.8,29.94,NNW,348,0.0,0.0,86,0.00,,,0.00,meteohub,2013-09-04 14:13:00,
2013-09-04 07:19:00,70.2,65.8,29.94,NNW,348,0.0,0.0,86,0.00,,,0.00,meteohub,2013-09-04 14:19:00,
2013-09-04 07:24:00,70.3,66.0,29.94,NNW,348,0.0,0.0,86,0.00,,,0.00,meteohub,2013-09-04 14:24:00,
2013-09-04 07:29:00,70.5,65.8,29.94,NNW,348,0.0,0.0,85,0.00,,,0.00,meteohub,2013-09-04 14:29:00,
2013-09-04 07:34:00,71.1,66.4,29.94,NNW,348,0.0,0.0,85,0.00,,,0.00,meteohub,2013-09-04 14:34:00,
2013-09-04 07:39:00,71.2,66.2,29.94,NNW,348,0.0,1.0,84,0.00,,,0.00,meteohub,2013-09-04 14:39:00,
2013-09-04 07:44:00,71.6,66.6,29.94,NNW,348,0.0,1.0,84,0.00,,,0.00,meteohub,2013-09-04 14:44:00,
2013-09-04 07:49:00,71.8,66.7,29.95,NNW,348,0.0,1.0,84,0.00,,,0.00,meteohub,2013-09-04 14:49:00,
2013-09-04 07:54:00,72.0,66.9,29.94,NNW,348,0.0,0.0,84,0.00,,,0.00,meteohub,2013-09-04 14:54:00,
2013-09-04 07:59:00,72.1,66.7,29.95,NNW,348,0.0,0.0,83,0.00,,,0.00,meteohub,2013-09-04 14:59:00,
2013-09-04 08:04:00,72.5,66.7,29.95,NNW,348,0.0,0.0,82,0.00,,,0.00,meteohub,2013-09-04 15:04:00,
2013-09-04 08:09:00,72.9,66.7,29.95,NNW,348,0.0,1.0,81,0.00,,,0.00,meteohub,2013-09-04 15:09:00,
2013-09-04 08:14:00,73.6,66.7,29.95,NNW,348,0.0,1.0,79,0.00,,,0.00,meteohub,2013-09-04 15:14:00,
2013-09-04 08:19:00,73.9,67.1,29.95,NNW,348,0.0,2.0,79,0.00,,,0.00,meteohub,2013-09-04 15:19:00,
2013-09-04 08:24:00,74.5,66.7,29.95,NNW,348,0.0,2.0,77,0.00,,,0.00,meteohub,2013-09-04 15:24:00,
2013-09-04 08:29:00,74.8,66.7,29.95,NNW,348,0.0,2.0,76,0.00,,,0.00,meteohub,2013-09-04 15:29:00,
2013-09-04 08:34:00,75.4,66.9,29.95,NNW,348,0.0,1.0,75,0.00,,,0.00,meteohub,2013-09-04 15:34:00,
2013-09-04 08:39:00,75.7,66.9,29.94,NNW,348,0.0,1.0,74,0.00,,,0.00,meteohub,2013-09-04 15:39:00,
2013-09-04 08:44:00,76.3,66.9,29.94,NNW,348,0.0,1.0,73,0.00,,,0.00,meteohub,2013-09-04 15:44:00,
2013-09-04 08:49:00,76.6,66.9,29.95,NNW,348,0.0,1.0,72,0.00,,,0.00,meteohub,2013-09-04 15:49:00,
2013-09-04 08:54:00,77.4,67.3,29.94,NNW,348,0.0,2.0,71,0.00,,,0.00,meteohub,2013-09-04 15:54:00,
2013-09-04 08:59:00,78.1,67.1,29.94,NNW,348,0.0,2.0,69,0.00,,,0.00,meteohub,2013-09-04 15:59:00,
2013-09-04 09:04:00,78.4,66.9,29.95,NNW,348,0.0,2.0,68,0.00,,,0.00,meteohub,2013-09-04 16:04:00,
2013-09-04 09:10:00,79.0,67.1,29.94,NNW,348,0.0,2.0,67,0.00,,,0.00,meteohub,2013-09-04 16:10:00,
2013-09-04 09:15:00,79.3,66.9,29.94,NNW,348,0.0,2.0,66,0.00,,,0.00,meteohub,2013-09-04 16:15:00,
2013-09-04 09:20:00,79.7,67.3,29.94,NNW,348,0.0,2.0,66,0.00,,,0.00,meteohub,2013-09-04 16:20:00,
2013-09-04 09:25:00,80.2,67.5,29.94,NNW,348,0.0,1.0,65,0.00,,,0.00,meteohub,2013-09-04 16:25:00,
2013-09-04 09:30:00,80.8,67.5,29.94,NNW,348,0.0,1.0,64,0.00,,,0.00,meteohub,2013-09-04 16:30:00,
2013-09-04 09:35:00,81.1,67.3,29.95,NNW,348,0.0,1.0,63,0.00,,,0.00,meteohub,2013-09-04 16:35:00,
2013-09-04 09:40:00,81.9,67.1,29.94,NNW,348,0.0,1.0,61,0.00,,,0.00,meteohub,2013-09-04 16:40:00,
2013-09-04 09:45:00,82.2,66.4,29.94,NNW,348,0.0,1.0,59,0.00,,,0.00,meteohub,2013-09-04 16:45:00,
2013-09-04 09:50:00,82.9,68.2,29.94,NNW,348,0.0,2.0,61,0.00,,,0.00,meteohub,2013-09-04 16:50:00,
2013-09-04 09:55:00,83.7,68.4,29.94,NNW,348,0.0,2.0,60,0.00,,,0.00,meteohub,2013-09-04 16:55:00,
2013-09-04 10:00:00,84.6,68.2,29.94,NNW,348,0.0,1.0,58,0.00,,,0.00,meteohub,2013-09-04 17:00:00,
2013-09-04 10:05:00,85.3,68.4,29.94,NNW,348,0.0,1.0,57,0.00,,,0.00,meteohub,2013-09-04 17:05:00,
2013-09-04 10:10:00,86.0,68.0,29.94,NNW,348,0.0,5.0,55,0.00,,,0.00,meteohub,2013-09-04 17:10:00,
2013-09-04 10:15:00,86.5,68.4,29.94,NNW,342,0.0,5.0,55,0.00,,,0.00,meteohub,2013-09-04 17:15:00,
2013-09-04 10:20:00,87.3,68.0,29.94,NNW,343,1.0,5.0,53,0.00,,,0.00,meteohub,2013-09-04 17:20:00,
2013-09-04 10:25:00,87.6,67.3,29.94,North,0,2.0,6.0,51,0.00,,,0.00,meteohub,2013-09-04 17:25:00,
2013-09-04 10:31:00,88.2,67.8,29.94,North,355,2.0,6.0,51,0.00,,,0.00,meteohub,2013-09-04 17:31:00,
2013-09-04 10:36:00,88.7,67.6,29.94,North,355,2.0,5.0,50,0.00,,,0.00,meteohub,2013-09-04 17:36:00,
2013-09-04 10:41:00,89.1,68.0,29.94,NNW,342,2.0,5.0,50,0.00,,,0.00,meteohub,2013-09-04 17:41:00,
2013-09-04 10:46:00,89.4,67.8,29.94,NNW,344,4.0,7.0,49,0.00,,,0.00,meteohub,2013-09-04 17:46:00,
2013-09-04 10:51:00,89.8,68.0,29.94,NNW,343,4.0,7.0,49,0.00,,,0.00,meteohub,2013-09-04 17:51:00,
2013-09-04 10:56:00,89.8,68.0,29.94,North,355,4.0,7.0,49,0.00,,,0.00,meteohub,2013-09-04 17:56:00,
2013-09-04 11:01:00,90.0,67.6,29.94,NNW,335,4.0,7.0,48,0.00,,,0.00,meteohub,2013-09-04 18:01:00,
2013-09-04 11:06:00,90.1,65.8,29.93,North,9,2.0,7.0,45,0.00,,,0.00,meteohub,2013-09-04 18:06:00,
2013-09-04 11:11:00,90.7,65.8,29.93,North,9,0.0,7.0,44,0.00,,,0.00,meteohub,2013-09-04 18:11:00,
2013-09-04 11:16:00,91.2,64.9,29.93,North,349,1.0,6.0,42,0.00,,,0.00,meteohub,2013-09-04 18:16:00,
2013-09-04 11:21:00,91.8,65.5,29.93,North,9,3.0,5.0,42,0.00,,,0.00,meteohub,2013-09-04 18:21:00,
2013-09-04 11:26:00,92.1,64.9,29.93,NNE,12,4.0,5.0,41,0.00,,,0.00,meteohub,2013-09-04 18:26:00,
2013-09-04 11:31:00,92.3,65.1,29.93,NNE,12,3.0,6.0,41,0.00,,,0.00,meteohub,2013-09-04 18:31:00,
2013-09-04 11:36:00,92.5,64.6,29.93,North,355,0.0,6.0,40,0.00,,,0.00,meteohub,2013-09-04 18:36:00,
2013-09-04 11:41:00,92.8,64.9,29.92,North,5,3.0,6.0,40,0.00,,,0.00,meteohub,2013-09-04 18:41:00,
2013-09-04 11:46:00,93.4,64.8,29.92,North,5,4.0,8.0,39,0.00,,,0.00,meteohub,2013-09-04 18:46:00,
2013-09-04 11:51:00,93.7,63.5,29.92,NNE,15,6.0,8.0,37,0.00,,,0.00,meteohub,2013-09-04 18:51:00,
2013-09-04 11:56:00,94.1,64.6,29.92,NNW,348,4.0,9.0,38,0.00,,,0.00,meteohub,2013-09-04 18:56:00,
2013-09-04 12:01:00,94.5,63.3,29.92,NNW,348,0.0,9.0,36,0.00,,,0.00,meteohub,2013-09-04 19:01:00,
2013-09-04 12:06:00,94.8,63.0,29.92,NNW,344,1.0,9.0,35,0.00,,,0.00,meteohub,2013-09-04 19:06:00,
2013-09-04 12:11:00,95.4,63.3,29.92,NNW,338,2.0,7.0,35,0.00,,,0.00,meteohub,2013-09-04 19:11:00,
2013-09-04 12:16:00,95.5,62.8,29.92,NNW,342,2.0,8.0,34,0.00,,,0.00,meteohub,2013-09-04 19:16:00,
2013-09-04 12:21:00,95.7,62.8,29.92,NNW,339,5.0,8.0,34,0.00,,,0.00,meteohub,2013-09-04 19:21:00,
2013-09-04 12:26:00,95.9,63.0,29.92,NNW,343,7.0,8.0,34,0.00,,,0.00,meteohub,2013-09-04 19:26:00,
2013-09-04 12:31:00,95.7,63.7,29.91,NNE,13,0.0,7.0,35,0.00,,,0.00,meteohub,2013-09-04 19:31:00,
2013-09-04 12:36:00,96.3,63.3,29.91,North,355,2.0,7.0,34,0.00,,,0.00,meteohub,2013-09-04 19:36:00,
2013-09-04 12:41:00,96.4,62.6,29.91,NNW,340,1.0,7.0,33,0.00,,,0.00,meteohub,2013-09-04 19:41:00,
2013-09-04 12:46:00,97.0,64.0,29.91,North,355,1.0,7.0,34,0.00,,,0.00,meteohub,2013-09-04 19:46:00,
2013-09-04 12:51:00,97.3,63.5,29.91,NNW,345,5.0,7.0,33,0.00,,,0.00,meteohub,2013-09-04 19:51:00,
2013-09-04 12:56:00,97.5,63.5,29.91,NNW,345,0.0,6.0,33,0.00,,,0.00,meteohub,2013-09-04 19:56:00,
2013-09-04 13:01:00,97.9,63.0,29.90,NNE,14,2.0,5.0,32,0.00,,,0.00,meteohub,2013-09-04 20:01:00,
2013-09-04 13:06:00,97.9,63.0,29.90,NNW,346,8.0,8.0,32,0.00,,,0.00,meteohub,2013-09-04 20:06:00,
2013-09-04 13:11:00,97.7,62.8,29.90,North,355,5.0,8.0,32,0.00,,,0.00,meteohub,2013-09-04 20:11:00,
2013-09-04 13:16:00,97.9,63.9,29.90,NNW,342,0.0,8.0,33,0.00,,,0.00,meteohub,2013-09-04 20:16:00,
2013-09-04 13:21:00,98.4,65.1,29.90,WSW,239,0.0,8.0,34,0.00,,,0.00,meteohub,2013-09-04 20:21:00,
2013-09-04 13:26:00,99.0,64.8,29.90,SSW,207,0.0,7.0,33,0.00,,,0.00,meteohub,2013-09-04 20:26:00,
2013-09-04 13:31:00,99.0,63.9,29.90,SW,227,7.0,7.0,32,0.00,,,0.00,meteohub,2013-09-04 20:31:00,
2013-09-04 13:36:00,98.6,63.7,29.90,WSW,238,0.0,8.0,32,0.00,,,0.00,meteohub,2013-09-04 20:36:00,
2013-09-04 13:41:00,98.8,64.6,29.90,SW,217,0.0,8.0,33,0.00,,,0.00,meteohub,2013-09-04 20:41:00,
2013-09-04 13:46:00,99.3,63.3,29.90,SW,218,0.0,8.0,31,0.00,,,0.00,meteohub,2013-09-04 20:46:00,
2013-09-04 13:51:00,99.3,63.3,29.90,WSW,237,2.0,4.0,31,0.00,,,0.00,meteohub,2013-09-04 20:51:00,
2013-09-04 13:56:00,99.0,62.1,29.90,SW,227,2.0,7.0,30,0.00,,,0.00,meteohub,2013-09-04 20:56:00,
2013-09-04 14:01:00,98.8,63.0,29.90,SSW,212,0.0,7.0,31,0.00,,,0.00,meteohub,2013-09-04 21:01:00,
2013-09-04 14:06:00,99.0,62.1,29.90,SW,215,0.0,7.0,30,0.00,,,0.00,meteohub,2013-09-04 21:06:00,
2013-09-04 14:11:00,99.1,62.2,29.90,WSW,243,0.0,5.0,30,0.00,,,0.00,meteohub,2013-09-04 21:11:00,
2013-09-04 14:16:00,99.3,62.4,29.90,WSW,239,1.0,5.0,30,0.00,,,0.00,meteohub,2013-09-04 21:16:00,
2013-09-04 14:21:00,99.3,62.4,29.89,SW,225,0.0,3.0,30,0.00,,,0.00,meteohub,2013-09-04 21:21:00,
2013-09-04 14:26:00,99.1,62.2,29.89,SSW,200,1.0,5.0,30,0.00,,,0.00,meteohub,2013-09-04 21:26:00,
2013-09-04 14:31:00,99.1,63.1,29.89,WNW,301,0.0,5.0,31,0.00,,,0.00,meteohub,2013-09-04 21:31:00,
2013-09-04 14:36:00,99.3,62.4,29.89,SW,229,0.0,5.0,30,0.00,,,0.00,meteohub,2013-09-04 21:36:00,
2013-09-04 14:41:00,99.3,62.4,29.89,SW,215,2.0,4.0,30,0.00,,,0.00,meteohub,2013-09-04 21:41:00,
2013-09-04 14:46:00,99.3,62.4,29.89,SSW,209,2.0,4.0,30,0.00,,,0.00,meteohub,2013-09-04 21:46:00,
2013-09-04 14:51:00,99.1,62.2,29.89,SW,231,0.0,5.0,30,0.00,,,0.00,meteohub,2013-09-04 21:51:00,
2013-09-04 14:56:00,98.8,63.0,29.88,SSW,192,3.0,5.0,31,0.00,,,0.00,meteohub,2013-09-04 21:56:00,
2013-09-04 15:01:00,98.2,62.4,29.88,SW,230,4.0,6.0,31,0.00,,,0.00,meteohub,2013-09-04 22:01:00,
2013-09-04 15:06:00,97.9,61.2,29.88,SW,236,1.0,7.0,30,0.00,,,0.00,meteohub,2013-09-04 22:06:00,
2013-09-04 15:11:00,97.5,60.8,29.88,SSW,211,2.0,7.0,30,0.00,,,0.00,meteohub,2013-09-04 22:11:00,
2013-09-04 15:16:00,97.3,61.7,29.88,SW,219,3.0,7.0,31,0.00,,,0.00,meteohub,2013-09-04 22:16:00,
2013-09-04 15:21:00,97.5,60.8,29.88,SW,236,2.0,7.0,30,0.00,,,0.00,meteohub,2013-09-04 22:21:00,
2013-09-04 15:26:00,97.9,62.1,29.88,SW,225,1.0,6.0,31,0.00,,,0.00,meteohub,2013-09-04 22:26:00,
2013-09-04 15:31:00,98.1,61.3,29.88,SW,217,2.0,5.0,30,0.00,,,0.00,meteohub,2013-09-04 22:31:00,
2013-09-04 15:36:00,97.9,61.2,29.88,SW,228,0.0,5.0,30,0.00,,,0.00,meteohub,2013-09-04 22:36:00,
2013-09-04 15:41:00,98.1,62.2,29.88,SSW,206,1.0,5.0,31,0.00,,,0.00,meteohub,2013-09-04 22:41:00,
2013-09-04 15:46:00,98.2,61.5,29.88,SW,232,2.0,6.0,30,0.00,,,0.00,meteohub,2013-09-04 22:46:00,
2013-09-04 15:51:00,98.2,60.4,29.88,SW,220,2.0,6.0,29,0.00,,,0.00,meteohub,2013-09-04 22:51:00,
2013-09-04 15:56:00,98.1,61.3,29.88,SW,227,0.0,6.0,30,0.00,,,0.00,meteohub,2013-09-04 22:56:00,
2013-09-04 16:01:00,98.1,61.3,29.88,WSW,238,3.0,6.0,30,0.00,,,0.00,meteohub,2013-09-04 23:01:00,
2013-09-04 16:06:00,97.9,61.2,29.88,SW,233,0.0,7.0,30,0.00,,,0.00,meteohub,2013-09-04 23:06:00,
2013-09-04 16:11:00,97.5,60.8,29.88,SW,233,0.0,7.0,30,0.00,,,0.00,meteohub,2013-09-04 23:11:00,
2013-09-04 16:16:00,97.5,60.8,29.88,SW,233,0.0,7.0,30,0.00,,,0.00,meteohub,2013-09-04 23:16:00,
2013-09-04 16:21:00,97.7,61.0,29.88,SSW,213,1.0,5.0,30,0.00,,,0.00,meteohub,2013-09-04 23:21:00,
2013-09-04 16:26:00,97.5,60.8,29.88,SW,217,0.0,5.0,30,0.00,,,0.00,meteohub,2013-09-04 23:26:00,
2013-09-04 16:31:00,97.3,61.7,29.88,SSW,205,2.0,5.0,31,0.00,,,0.00,meteohub,2013-09-04 23:31:00,
2013-09-04 16:36:00,97.0,61.3,29.88,SW,236,1.0,5.0,31,0.00,,,0.00,meteohub,2013-09-04 23:36:00,
2013-09-04 16:41:00,96.4,60.8,29.88,SW,236,0.0,5.0,31,0.00,,,0.00,meteohub,2013-09-04 23:41:00,
2013-09-04 16:46:00,96.1,60.6,29.88,WSW,242,3.0,5.0,31,0.00,,,0.00,meteohub,2013-09-04 23:46:00,
2013-09-04 16:51:00,95.7,59.4,29.88,WSW,238,2.0,7.0,30,0.00,,,0.00,meteohub,2013-09-04 23:51:00,
2013-09-04 16:56:00,95.4,59.9,29.88,SW,236,0.0,7.0,31,0.00,,,0.00,meteohub,2013-09-04 23:56:00,
2013-09-04 17:01:00,95.2,59.7,29.88,SW,215,4.0,7.0,31,0.00,,,0.00,meteohub,2013-09-05 00:01:00,
2013-09-04 17:06:00,94.5,59.2,29.88,SW,224,0.0,5.0,31,0.00,,,0.00,meteohub,2013-09-05 00:06:00,
2013-09-04 17:11:00,94.1,58.8,29.88,WNW,289,0.0,5.0,31,0.00,,,0.00,meteohub,2013-09-05 00:11:00,
2013-09-04 17:16:00,93.7,59.4,29.88,WNW,289,0.0,5.0,32,0.00,,,0.00,meteohub,2013-09-05 00:16:00,
2013-09-04 17:21:00,93.4,59.2,29.88,WNW,289,1.0,5.0,32,0.00,,,0.00,meteohub,2013-09-05 00:21:00,
2013-09-04 17:26:00,93.0,58.8,29.88,WNW,289,1.0,4.0,32,0.00,,,0.00,meteohub,2013-09-05 00:26:00,
2013-09-04 17:31:00,92.7,58.5,29.88,WNW,289,0.0,2.0,32,0.00,,,0.00,meteohub,2013-09-05 00:31:00,
2013-09-04 17:36:00,92.5,58.3,29.88,WNW,289,0.0,2.0,32,0.00,,,0.00,meteohub,2013-09-05 00:36:00,
2013-09-04 17:41:00,92.5,60.1,29.88,WNW,289,0.0,2.0,34,0.00,,,0.00,meteohub,2013-09-05 00:41:00,
2013-09-04 17:46:00,92.5,59.2,29.88,WNW,289,0.0,2.0,33,0.00,,,0.00,meteohub,2013-09-05 00:46:00,
2013-09-04 17:51:00,92.3,59.0,29.88,WNW,289,0.0,2.0,33,0.00,,,0.00,meteohub,2013-09-05 00:51:00,
2013-09-04 17:56:00,92.1,58.8,29.88,WNW,289,0.0,2.0,33,0.00,,,0.00,meteohub,2013-09-05 00:56:00,
2013-09-04 18:01:00,91.9,59.5,29.88,WNW,289,0.0,2.0,34,0.00,,,0.00,meteohub,2013-09-05 01:01:00,
2013-09-04 18:06:00,91.8,59.4,29.88,WNW,289,1.0,2.0,34,0.00,,,0.00,meteohub,2013-09-05 01:06:00,
2013-09-04 18:11:00,91.6,60.1,29.88,WNW,289,1.0,2.0,35,0.00,,,0.00,meteohub,2013-09-05 01:11:00,
2013-09-04 18:16:00,91.2,59.7,29.88,WNW,289,0.0,2.0,35,0.00,,,0.00,meteohub,2013-09-05 01:16:00,
2013-09-04 18:21:00,91.2,59.7,29.88,WNW,289,0.0,1.0,35,0.00,,,0.00,meteohub,2013-09-05 01:21:00,
2013-09-04 18:26:00,91.0,59.5,29.88,WNW,289,0.0,1.0,35,0.00,,,0.00,meteohub,2013-09-05 01:26:00,
2013-09-04 18:31:00,90.7,59.2,29.87,WNW,289,0.0,1.0,35,0.00,,,0.00,meteohub,2013-09-05 01:31:00,
2013-09-04 18:36:00,90.5,59.2,29.87,WNW,289,0.0,1.0,35,0.00,,,0.00,meteohub,2013-09-05 01:36:00,
2013-09-04 18:41:00,90.3,59.7,29.88,NNW,338,4.0,4.0,36,0.00,,,0.00,meteohub,2013-09-05 01:41:00,
2013-09-04 18:46:00,89.8,60.1,29.88,North,5,3.0,7.0,37,0.00,,,0.00,meteohub,2013-09-05 01:46:00,
2013-09-04 18:51:00,89.2,61.7,29.88,North,5,4.0,7.0,40,0.00,,,0.00,meteohub,2013-09-05 01:51:00,
2013-09-04 18:56:00,88.3,61.7,29.88,North,355,6.0,7.0,41,0.00,,,0.00,meteohub,2013-09-05 01:56:00,
2013-09-04 19:01:00,88.0,62.1,29.88,NNE,13,2.0,7.0,42,0.00,,,0.00,meteohub,2013-09-05 02:01:00,
2013-09-04 19:06:00,87.4,62.2,29.88,North,350,0.0,7.0,43,0.00,,,0.00,meteohub,2013-09-05 02:06:00,
2013-09-04 19:11:00,86.9,63.0,29.88,NNW,334,0.0,6.0,45,0.00,,,0.00,meteohub,2013-09-05 02:11:00,
2013-09-04 19:16:00,86.4,63.1,29.88,NNW,343,2.0,7.0,46,0.00,,,0.00,meteohub,2013-09-05 02:16:00,
2013-09-04 19:21:00,86.0,62.8,29.88,NNW,343,4.0,7.0,46,0.00,,,0.00,meteohub,2013-09-05 02:21:00,
2013-09-04 19:26:00,85.6,63.1,29.88,NNW,343,1.0,7.0,47,0.00,,,0.00,meteohub,2013-09-05 02:26:00,
2013-09-04 19:31:00,85.5,63.0,29.88,North,355,5.0,7.0,47,0.00,,,0.00,meteohub,2013-09-05 02:31:00,
2013-09-04 19:36:00,85.3,63.3,29.88,North,349,5.0,8.0,48,0.00,,,0.00,meteohub,2013-09-05 02:36:00,
2013-09-04 19:41:00,85.1,63.1,29.88,NNW,348,4.0,8.0,48,0.00,,,0.00,meteohub,2013-09-05 02:41:00,
2013-09-04 19:46:00,84.7,63.0,29.89,NNE,15,4.0,8.0,48,0.00,,,0.00,meteohub,2013-09-05 02:46:00,
2013-09-04 19:51:00,84.6,63.3,29.89,North,355,5.0,8.0,49,0.00,,,0.00,meteohub,2013-09-05 02:51:00,
2013-09-04 19:56:00,84.6,63.9,29.89,North,5,5.0,7.0,50,0.00,,,0.00,meteohub,2013-09-05 02:56:00,
2013-09-04 20:01:00,84.0,63.3,29.89,North,5,5.0,7.0,50,0.00,,,0.00,meteohub,2013-09-05 03:01:00,
2013-09-04 20:06:00,83.8,63.9,29.90,North,0,2.0,9.0,51,0.00,,,0.00,meteohub,2013-09-05 03:06:00,
2013-09-04 20:11:00,83.7,63.7,29.90,NNW,343,4.0,9.0,51,0.00,,,0.00,meteohub,2013-09-05 03:11:00,
2013-09-04 20:16:00,83.3,63.9,29.90,NNW,345,5.0,8.0,52,0.00,,,0.00,meteohub,2013-09-05 03:16:00,
2013-09-04 20:21:00,83.1,63.1,29.90,North,5,4.0,8.0,51,0.00,,,0.00,meteohub,2013-09-05 03:21:00,
2013-09-04 20:26:00,82.9,63.0,29.90,NW,313,4.0,8.0,51,0.00,,,0.00,meteohub,2013-09-05 03:26:00,
2013-09-04 20:31:00,82.8,63.3,29.90,North,0,4.0,8.0,52,0.00,,,0.00,meteohub,2013-09-05 03:31:00,
2013-09-04 20:36:00,82.6,63.1,29.90,NNE,18,4.0,9.0,52,0.00,,,0.00,meteohub,2013-09-05 03:36:00,
2013-09-04 20:41:00,82.2,62.8,29.90,North,350,4.0,9.0,52,0.00,,,0.00,meteohub,2013-09-05 03:41:00,
2013-09-04 20:46:00,82.0,63.1,29.91,NNW,344,6.0,7.0,53,0.00,,,0.00,meteohub,2013-09-05 03:46:00,
2013-09-04 20:51:00,81.9,63.0,29.91,NNW,339,4.0,8.0,53,0.00,,,0.00,meteohub,2013-09-05 03:51:00,
2013-09-04 20:56:00,81.9,63.0,29.91,North,11,3.0,8.0,53,0.00,,,0.00,meteohub,2013-09-05 03:56:00,
2013-09-04 21:01:00,81.7,63.0,29.91,NNW,341,2.0,8.0,53,0.00,,,0.00,meteohub,2013-09-05 04:01:00,
2013-09-04 21:02:00,81.7,63.0,29.91,NNW,344,2.0,8.0,53,0.00,,,0.00,meteohub,2013-09-05 04:02:00,
2013-09-04 21:06:00,81.7,63.0,29.91,NNW,344,4.0,8.0,53,0.00,,,0.00,meteohub,2013-09-05 04:06:00,
2013-09-04 21:11:00,81.3,62.6,29.91,North,5,3.0,8.0,53,0.00,,,0.00,meteohub,2013-09-05 04:11:00,
2013-09-04 21:16:00,81.3,62.6,29.91,NNW,333,4.0,8.0,53,0.00,,,0.00,meteohub,2013-09-05 04:16:00,
2013-09-04 21:21:00,81.3,62.6,29.91,NNW,344,5.0,6.0,53,0.00,,,0.00,meteohub,2013-09-05 04:21:00,
2013-09-04 21:26:00,81.1,63.0,29.91,North,5,4.0,6.0,54,0.00,,,0.00,meteohub,2013-09-05 04:26:00,
2013-09-04 21:31:00,81.1,63.0,29.91,North,355,0.0,6.0,54,0.00,,,0.00,meteohub,2013-09-05 04:31:00,
2013-09-04 21:36:00,81.1,63.0,29.91,North,5,0.0,6.0,54,0.00,,,0.00,meteohub,2013-09-05 04:36:00,
2013-09-04 21:41:00,81.0,62.8,29.92,NNW,348,4.0,6.0,54,0.00,,,0.00,meteohub,2013-09-05 04:41:00,
2013-09-04 21:46:00,81.0,62.2,29.92,North,351,0.0,6.0,53,0.00,,,0.00,meteohub,2013-09-05 04:46:00,
2013-09-04 21:51:00,81.0,62.2,29.92,North,351,0.0,5.0,53,0.00,,,0.00,meteohub,2013-09-05 04:51:00,
2013-09-04 21:56:00,81.0,62.8,29.92,North,351,0.0,5.0,54,0.00,,,0.00,meteohub,2013-09-05 04:56:00,
2013-09-04 22:01:00,80.8,62.6,29.92,North,351,0.0,5.0,54,0.00,,,0.00,meteohub,2013-09-05 05:01:00,
2013-09-04 22:06:00,80.8,62.1,29.92,North,351,1.0,5.0,53,0.00,,,0.00,meteohub,2013-09-05 05:06:00,
2013-09-04 22:11:00,80.8,62.6,29.92,North,351,0.0,2.0,54,0.00,,,0.00,meteohub,2013-09-05 05:11:00,
2013-09-04 22:16:00,80.8,62.1,29.92,North,351,0.0,2.0,53,0.00,,,0.00,meteohub,2013-09-05 05:16:00,
2013-09-04 22:21:00,80.8,62.6,29.92,North,351,0.0,1.0,54,0.00,,,0.00,meteohub,2013-09-05 05:21:00,
2013-09-04 22:26:00,80.6,62.4,29.93,North,351,0.0,1.0,54,0.00,,,0.00,meteohub,2013-09-05 05:26:00,
2013-09-04 22:31:00,80.6,61.9,29.92,North,351,0.0,1.0,53,0.00,,,0.00,meteohub,2013-09-05 05:31:00,
2013-09-04 22:36:00,80.6,62.4,29.93,North,351,0.0,1.0,54,0.00,,,0.00,meteohub,2013-09-05 05:36:00,
2013-09-04 22:41:00,80.8,62.1,29.92,North,351,0.0,1.0,53,0.00,,,0.00,meteohub,2013-09-05 05:41:00,
2013-09-04 22:46:00,80.6,62.4,29.92,North,351,0.0,1.0,54,0.00,,,0.00,meteohub,2013-09-05 05:46:00,
2013-09-04 22:51:00,80.4,62.2,29.92,North,351,0.0,1.0,54,0.00,,,0.00,meteohub,2013-09-05 05:51:00,
2013-09-04 22:56:00,80.4,62.8,29.92,North,351,0.0,0.0,55,0.00,,,0.00,meteohub,2013-09-05 05:56:00,
2013-09-04 23:01:00,80.2,62.6,29.92,North,351,0.0,0.0,55,0.00,,,0.00,meteohub,2013-09-05 06:01:00,
2013-09-04 23:06:00,80.1,62.4,29.92,North,351,0.0,0.0,55,0.00,,,0.00,meteohub,2013-09-05 06:06:00,
2013-09-04 23:11:00,79.9,63.3,29.92,North,351,0.0,0.0,57,0.00,,,0.00,meteohub,2013-09-05 06:11:00,
2013-09-04 23:16:00,79.9,63.3,29.92,North,351,0.0,0.0,57,0.00,,,0.00,meteohub,2013-09-05 06:16:00,
2013-09-04 23:21:00,79.5,63.5,29.92,North,351,0.0,0.0,58,0.00,,,0.00,meteohub,2013-09-05 06:21:00,
2013-09-04 23:26:00,79.3,63.3,29.92,North,351,0.0,1.0,58,0.00,,,0.00,meteohub,2013-09-05 06:26:00,
2013-09-04 23:31:00,79.0,63.5,29.92,North,351,0.0,1.0,59,0.00,,,0.00,meteohub,2013-09-05 06:31:00,
2013-09-04 23:36:00,78.6,63.5,29.92,North,351,0.0,1.0,60,0.00,,,0.00,meteohub,2013-09-05 06:36:00,
2013-09-04 23:41:00,78.3,63.7,29.92,North,351,0.0,1.0,61,0.00,,,0.00,meteohub,2013-09-05 06:41:00,
2013-09-04 23:46:00,77.9,63.9,29.92,North,351,0.0,1.0,62,0.00,,,0.00,meteohub,2013-09-05 06:46:00,
2013-09-04 23:51:00,77.5,63.9,29.92,North,351,0.0,0.0,63,0.00,,,0.00,meteohub,2013-09-05 06:51:00,
2013-09-04 23:56:00,77.2,64.0,29.92,North,351,0.0,1.0,64,0.00,,,0.00,meteohub,2013-09-05 06:56:00,